Погода в Смердомском

Россия / Вологодская область     59°10′34″N   35°03′43″E
темп.,
°C
ветер,
м/с
пор.,
м/с
влажн.,
%
обл.,
%
осадки,
мм/ч
давл.,
гПа
погр.,
м
13 августа, сб
сб1300:00+15з118711 0.0 102311
03:00+15зюз229019 0.0 102325
06:00+15зюз228965 0.0 102357
09:00+22зюз236155 0.0 1022483
12:00+25зюз234655 0.0 10221809
15:00+27з333855 0.0 10212296
18:00+24ссв355388 0.0 1020497
21:00+20св267485 0.0 1021183
14 августа, вс
вс1400:00+18св268629 0.0 1022180
03:00+16всв259580 0.0 1022111
06:00+15всв248076 0.0 1022113
09:00+20всв23484 0.0 1022442
12:00+24в32445 0.0 1022979
15:00+26всв234219 0.0 10211658
18:00+26св114211 0.0 10201309
21:00+19в24731 0.0 102078
15 августа, пн
пн1500:00+17в25846 0.0 1021103
03:00+16в258839 0.0 1021100
06:00+16в24885 0.0 102299
09:00+23вюв24595 0.0 1022472
12:00+27юв34410 0.0 10221804
15:00+29юв343481 0.0 10212672
18:00+23вюв275649 0.0 1021205
21:00+20вюв386968 0.0 1021190
16 августа, вт
вт1600:00+21юв2768100 0.0 1022205
03:00+17юв22825 0.0 102237
06:00+17юв25825 0.0 1022101
09:00+22юв356093 0.0 1023327
12:00+28ююв353939 0.0 10221745
15:00+29ю443535 0.0 10212379
18:00+27ююв464437 0.0 1021967
21:00+20юв39645 0.0 1021178
17 августа, ср
ср1700:00+18ююв27765 0.0 1022124
03:00+17ююв22756 0.0 102226
06:00+16ююв23765 0.0 102263
09:00+23ююв35505 0.0 1022429
12:00+28ююв453219 0.0 10212065
15:00+29ююв35315 0.0 10202281
18:00+27ююв243790 0.0 1019930
21:00+20вюв24615 0.0 101969